Tracking 23610 objects as of 20-Sep-2021
HD Live streaming from Space Station
objects crossing your sky now

NSTAR A

Track NSTAR A now!
NSTAR A is classified as:


NORAD ID: 23651
Int'l Code: 1995-044A
Perigee: 36,043.3 km
Apogee: 36,190.4 km
Inclination: 11.2 °
Period: 1,452.6 minutes
Semi major axis: 42487 km
RCS: 15.8489 m2 (large)
Launch date: August 29, 1995
Source: Japan (JPN)
Launch site: FRENCH GUIANA (FRGUI)

Voice and TV broadcast to Japan and neighboring region.
aabbcc
Your satellite tracking list
Your tracking list is empty




NASA's NSSDC Master Catalog

Two Line Element Set (TLE):
1 23651U 95044A   21262.75620208 -.00000310  00000-0  00000-0 0  9997
2 23651  11.1714  32.7122 0017319 350.5536  22.1611  0.99130140 94754
Source of the keplerian elements: AFSPC